Location: *
(46.4000°N, 12.6667°E)
Time: 03:10:43
(UTC+00:00)

Tiangong - Visible Passes

Search period start: 21 September 2021 00:00
Search period end: 01 October 2021 00:00
Orbit: 380 x 385 km, 41.5° (Epoch: 20 September)

Date Brightness Start Highest point End Pass type
(mag) Time Alt. Az. Time Alt. Az. Time Alt. Az.
26 Sep 3.8 04:00:30 10° S 04:01:52 12° SSE 04:03:15 10° SE visible
28 Sep 3.3 03:36:49 14° S 03:38:06 17° SSE 03:40:17 10° ESE visible
29 Sep 2.5 04:11:49 11° SW 04:14:23 28° S 04:17:10 10° ESE visible
30 Sep 2.9 03:14:36 23° SSE 03:14:36 23° SSE 03:16:58 10° ESE visible
